カタログに戻る

STARLINK DEPLOYMENT RAIL

運用中SSO
NORAD 47423·DEBRIS·🇺🇸 United States
この衛星名は、まだ公式ソースで確認されていません。

打ち上げ Jan 24, 2021 から Cape Canaveral Space Force Station

Loading…

次のパス (今後24時間)

TLE

最新Source: Space-Track

元期: Sep 14, 2026, 13:18 UTC

1 47423U 21006L   26257.55484671  .00004474  00000-0  13287-3 0  9994
2 47423  97.2132 302.2761 0009566 225.4923 134.5540 15.35251168313376

AllMySatでSTARLINK DEPLOYMENT RAILをリアルタイム追跡

Download on the App Store